{"data":{"norad_id":63673,"epoch":"2026-05-24T19:21:05.973696Z","epoch_age_seconds":102194,"freshness":"FRESH","line1":"1 63673U 25085K   26144.80631914  .00158537  00000+0  12140-2 0  9992","line2":"2 63673  43.0016 179.5524 0000369 306.2187  53.8646 15.70870291 62212","mean_motion":15.70870291,"eccentricity":3.69e-5,"inclination_deg":43.0016,"raan_deg":179.5524,"arg_perigee_deg":306.2187,"mean_anomaly_deg":53.8646,"bstar":0.001214,"rev_number":6221,"period_min":91.668930799074,"perigee_km":356.15998088431,"apogee_km":356.65699034115,"semimajor_km":6734.5454856127,"source":"CELESTRAK","updated_at":"2026-05-25T13:38:20.092135Z"}}